This is the latest recevied weather packets stored in our database for station/object KY0TEQ-13. If no packets are shown the sender has not sent any weather packets the latest 10 day(s).
| Time | Temp. | Humidity | Pressure | Rain* | Wind** | Luminosity | Snow |
|---|---|---|---|---|---|---|---|
| 1788139515 | 21.11° C | 39% | 1307.8 hPa | 0 mm | - | 1 W/m² | - |
| 1788139209 | 21.11° C | 39% | 1307.6 hPa | 0 mm | - | 2 W/m² | - |
| 1788138908 | 21.11° C | 39% | 1307.7 hPa | 0 mm | - | 4 W/m² | - |
| 1788138604 | 21.11° C | 39% | 1307.6 hPa | 0 mm | - | 8 W/m² | - |
| 1788138299 | 21.67° C | 38% | 1307.6 hPa | 0 mm | - | 14 W/m² | - |
| 1788137995 | 21.67° C | 38% | 1307.4 hPa | 0 mm | - | 20 W/m² | - |
| 1788137704 | 21.67° C | 37% | 1307.3 hPa | 0 mm | - | 29 W/m² | - |
| 1788137389 | 22.22° C | 37% | 1307.4 hPa | 0 mm | - | 36 W/m² | - |
| 1788137086 | 22.78° C | 35% | 1307.7 hPa | 0 mm | - | 41 W/m² | - |
| 1788136782 | 22.78° C | 34% | 1307.7 hPa | 0 mm | - | 45 W/m² | - |
| 1788136477 | 23.33° C | 34% | 1307.6 hPa | 0 mm | - | 51 W/m² | - |
| 1788136177 | 23.33° C | 33% | 1307.7 hPa | 0 mm | - | 59 W/m² | - |
| 1788135876 | 23.33° C | 33% | 1307.8 hPa | 0 mm | - | 60 W/m² | - |
| 1788135572 | 23.89° C | 32% | 1307.7 hPa | 0 mm | - | 63 W/m² | - |
| 1788135266 | 23.89° C | 31% | 1307.4 hPa | 0 mm | - | 71 W/m² | - |
| 1788134964 | 23.33° C | 32% | 1307.4 hPa | 0 mm | - | 58 W/m² | - |
| 1788134660 | 23.33° C | 31% | 1307.7 hPa | 0 mm | - | 55 W/m² | - |
| 1788134357 | 23.33° C | 31% | 1307.3 hPa | 0 mm | - | 64 W/m² | - |
| 1788134053 | 23.33° C | 32% | 1307.4 hPa | 0 mm | - | 61 W/m² | - |
| 1788133748 | 23.89° C | 31% | 1307.3 hPa | 0 mm | - | 71 W/m² | - |
| 1788133443 | 23.89° C | 32% | 1307.6 hPa | 0 mm | - | 89 W/m² | - |
| 1788133140 | 23.89° C | 33% | 1307.4 hPa | 0 mm | - | 89 W/m² | - |
| 1788132840 | 24.44° C | 32% | 1307.2 hPa | 0 mm | - | 99 W/m² | - |
| 1788132535 | 25° C | 31% | 1307.3 hPa | 0 mm | - | 129 W/m² | - |
| 1788132231 | 25° C | 30% | 1307.3 hPa | 0 mm | - | 281 W/m² | - |
* Rain latest hour (hover to see other rain measurements)
** Current wind speed in m/s (hover to see current wind gust speed)